{"data":{"norad_id":62595,"intl_designator":"2025-008J","name":"STARLINK-11535 [DTC]","alt_names":[],"object_type":"PAYLOAD","status":"ACTIVE","operator":null,"country":"US","launch_date":"2025-01-13","launch_site_code":"AFETR","launch_vehicle":null,"mission":null,"orbit_class":"UNKNOWN","rcs_meters":null,"size_class":null,"mass_kg":null,"dimensions":null,"purposes":["comms"],"wikipedia_slug":null,"has_3d_model":false,"image_url":null,"decayed_at":null,"tle_current":{"epoch":"2026-05-25T00:31:12.984384Z","epoch_age_seconds":83557,"freshness":"FRESH","line1":"1 62595U 25008J   26145.02167806  .00083704  00000+0  64848-3 0  9994","line2":"2 62595  43.0007  25.6674 0001853 263.2261  96.8396 15.70868509 79143","mean_motion":15.70868509,"eccentricity":0.0001853,"inclination_deg":43.0007,"raan_deg":25.6674,"arg_perigee_deg":263.2261,"mean_anomaly_deg":96.8396,"bstar":0.00064848,"rev_number":7914,"period_min":91.669034788704,"perigee_km":355.16566652112,"apogee_km":357.66149096561,"semimajor_km":6734.5505787434,"source":"CELESTRAK","updated_at":"2026-05-25T13:38:19.734837Z"}}}